Tracking 25995 objects as of 19-Aug-2022
HD Live streaming from Space Station
objects crossing your sky now

THOR ABLESTAR DEB

Track THOR ABLESTAR DEB now!
10-day predictions


NORAD ID: 559
Int'l Code: 1961-015GR
Perigee: 701.8 km
Apogee: 787.1 km
Inclination: 66.6 °
Period: 99.6 minutes
Semi major axis: 7115 km
RCS: 0.0375 m2 (small)
Launch date: June 29, 1961
Source: United States (US)
Launch site: AIR FORCE EASTERN TEST RANGE (AFETR)

Note: This is SATELLITE DEBRIS
aabbcc
Your satellite tracking list
Your tracking list is empty




NASA's NSSDC Master Catalog

Two Line Element Set (TLE):
1 00559U 61015GR  22231.26815694  .00002487  00000-0  70067-3 0  9997
2 00559  66.6082 173.4817 0059977 110.3977 250.3584 14.46432111145964
Source of the keplerian elements: AFSPC